Regional Weather Roundup
Issued by NWS Albany, NY

Home | Current Version | Previous Version | Text Only | Print | Product List | Glossary On
Versions: 1 2 3 4 5 6 7 8 9 10 11 12 13 14 15 16 17 18 19 20 21 22 23 24 25 26 27 28 29 30 31 32 33 34 35 36 37 38 39 40 41 42 43 44 45 46 47 48 49 50
000
ASUS41 KALY 132110
RWRALY

NEW YORK STATE HOURLY WEATHER ROUNDUP
NATIONAL WEATHER SERVICE ALBANY NY
400 PM EST SAT FEB 13 2016

NOTE: "FAIR" INDICATES FEW OR NO CLOUDS BELOW 12,000 FEET WITH NO
SIGNIFICANT WEATHER AND/OR NO OBSTRUCTIONS TO VISIBILITY.

NYZ032-033-038>043-046>054-057>066-NYZ062>081-132200-
EAST


CITY           SKY/WX    TMP DP  RH WIND       PRES   REMARKS
ALBANY         PTSUNNY    1 -16  44 NW24G40   30.18R WCI -22
GLENS FALLS    MOSUNNY    2 -23  30 W15G22    30.13R WCI -17
POUGHKEEPSIE   SUNNY     11 -17  27 W18G35    30.15R WCI  -7
NEWBURGH       MOSUNNY    7 -15  36 NW28G41   30.14R WCI -16
MONTGOMERY     SUNNY      8 -16  32 NW22G37   30.15R WCI -12
WHITE PLAINS   MOSUNNY   11 -14  31 W25G38    30.10R WCI -10
ISLIP          MOSUNNY   15 -10  32 NW29G44   30.08R WCI  -5
NEW YORK CITY  MOSUNNY   17  -4  39 NW32G41   30.15R WCI  -3
CENTRAL PARK   MOSUNNY   15 -13  27 NW14G28   30.16R WCI   0
$$

NYZ005>009-017-018-044>046-055-056-132200-
CENTRAL


CITY           SKY/WX    TMP DP  RH WIND       PRES   REMARKS
FULTON         HVY SNOW   0  -7  72 NW18G26   30.26S VSB 1/4 WCI -21
SYRACUSE       LGT SNOW  -2  -7  79 W14G26    30.25S VSB 3/4 WCI -21
ROME           CLOUDY    -6 -16  61 NW18      30.25R WCI -29
ELMIRA         CLOUDY     2 -13  49 NW9G18    30.24R WCI -13
BINGHAMTON     CLOUDY    -3 -17  51 NW17G31   30.10R WCI -24
MONTICELLO     PTSUNNY    0 -15  50 NW20G32   30.08R WCI -22
$$

NYZ026>034-041>043-132200-
NORTH


CITY           SKY/WX    TMP DP  RH WIND       PRES   REMARKS
WATERTOWN      CLOUDY    -9 -21  56 NW12      30.30S WCI -28
FORT DRUM      NOT AVBL
MASSENA        CLOUDY   -12 -26  49 W20       30.30R WCI -37
SARANAC LAKE   CLOUDY   -17 -27  60 W8G22     30.00R HAZE    WCI -35
PLATTSBURGH    CLOUDY    -9 -25  45 NW12G20   30.20R WCI -28
$$

NYZ001>004-010>016-019>021-132200-
WEST


CITY           SKY/WX    TMP DP  RH WIND       PRES   REMARKS
NIAGARA FALLS  LGT SNOW   3  -5  69 W7        30.33S WCI  -9
BUFFALO        FLURRIES   2  -7  66 W10       30.31S WCI -14
DUNKIRK        LGT SNOW   6  -4  63 NW16G29   30.35R WCI -12
JAMESTOWN      CLOUDY     3  -2  78 NW12      30.19R VSB 1/2 WCI -13
WELLSVILLE     LGT SNOW   0  -9  65 NW21G31   30.12R VSB 3/4 WCI -22
ROCHESTER      FLURRIES   1 -11  57 W16       30.31R WCI -19
PENN YAN       CLOUDY     0 -14  51 NW13      30.25R WCI -18
$$

             KEY
       WCI = WIND CHILL INDEX
       VSB = VISIBILITY
       HX  = HEAT INDEX
$$



USA.gov is the U.S. government's official web portal to all federal, state and local government web resources and services.